| time (UTC) | temp F | wind direction | speed knots | gust knots | rain 1hr in | rain 24hr in | rain mn in | humidity % | barometer mb |
| 20260505184619 | 54 | 0 | 0.9 | 5.2 | 0.00 | 0.00 | 0.00 | 74 | 1014.0 |
| 20260505183638 | 54 | 0.0 | 0.9 | 0.00 | 0.00 | 0.00 | 74 | 1014.0 | |
| 20260505182618 | 55 | 338 | 1.7 | 5.2 | 0.00 | 0.00 | 0.00 | 73 | 1014.0 |
| 20260505181618 | 55 | 23 | 1.7 | 3.5 | 0.00 | 0.00 | 0.00 | 73 | 1014.0 |
| 20260505180618 | 56 | 45 | 1.7 | 4.3 | 0.00 | 0.00 | 0.00 | 71 | 1014.1 |
| 20260505175618 | 56 | 45 | 0.9 | 2.6 | 0.00 | 0.00 | 0.00 | 69 | 1013.9 |
| 20260505174621 | 57 | 45 | 2.6 | 5.2 | 0.00 | 0.00 | 0.00 | 67 | 1014.0 |
| 20260505173638 | 58 | 23 | 0.9 | 2.6 | 0.00 | 0.00 | 0.00 | 67 | 1014.2 |
| 20260505172618 | 58 | 0.0 | 0.0 | 0.00 | 0.00 | 0.00 | 68 | 1014.2 | |
| 20260505171618 | 59 | 45 | 1.7 | 4.3 | 0.00 | 0.00 | 0.00 | 65 | 1014.2 |
| 20260505170618 | 59 | 248 | 0.9 | 2.6 | 0.00 | 0.00 | 0.00 | 65 | 1014.3 |
| 20260505165638 | 60 | 0 | 0.9 | 3.5 | 0.00 | 0.00 | 0.00 | 63 | 1014.4 |
| 20260505164618 | 61 | 68 | 0.9 | 2.6 | 0.00 | 0.00 | 0.00 | 62 | 1014.3 |
| 20260505163658 | 61 | 0 | 1.7 | 4.3 | 0.00 | 0.00 | 0.00 | 64 | 1014.3 |
| 20260505162618 | 61 | 338 | 5.2 | 9.6 | 0.00 | 0.00 | 0.00 | 61 | 1014.1 |
| 20260505161620 | 61 | 338 | 2.6 | 5.2 | 0.00 | 0.00 | 0.00 | 61 | 1014.2 |
| 20260505160618 | 61 | 0 | 0.9 | 2.6 | 0.00 | 0.00 | 0.00 | 60 | 1014.2 |
| 20260505152620 | 59 | 45 | 0.9 | 1.7 | 0.00 | 0.00 | 0.00 | 63 | 1014.4 |
| 20260505151620 | 60 | 23 | 2.6 | 4.3 | 0.00 | 0.00 | 0.00 | 62 | 1014.3 |
| 20260505150640 | 61 | 23 | 1.7 | 4.3 | 0.00 | 0.00 | 0.00 | 63 | 1014.3 |
| 20260505140640 | 62 | 315 | 2.6 | 8.7 | 0.00 | 0.00 | 0.00 | 63 | 1014.7 |
| 20260505124620 | 60 | 23 | 1.7 | 4.3 | 0.00 | 0.00 | 0.00 | 66 | 1014.6 |
| 20260505123620 | 60 | 225 | 0.9 | 2.6 | 0.00 | 0.00 | 0.00 | 65 | 1014.6 |
| 20260505122620 | 60 | 338 | 3.5 | 8.7 | 0.00 | 0.00 | 0.00 | 64 | 1014.7 |
| 20260505121619 | 59 | 45 | 1.7 | 3.5 | 0.00 | 0.00 | 0.00 | 66 | 1014.6 |
| 20260505120620 | 59 | 0 | 1.7 | 6.1 | 0.00 | 0.00 | 0.00 | 66 | 1014.6 |
| 20260505115620 | 59 | 0 | 1.7 | 2.6 | 0.00 | 0.00 | 0.00 | 64 | 1014.6 |
| 20260505114640 | 59 | 0 | 3.5 | 7.8 | 0.00 | 0.00 | 0.00 | 63 | 1014.6 |
| 20260505113639 | 59 | 225 | 0.9 | 2.6 | 0.00 | 0.00 | 0.00 | 64 | 1014.7 |
| 20260505112619 | 59 | 23 | 2.6 | 5.2 | 0.00 | 0.00 | 0.00 | 63 | 1014.6 |
| 20260505111640 | 59 | 23 | 1.7 | 7.0 | 0.00 | 0.00 | 0.00 | 63 | 1014.7 |
| 20260505110619 | 60 | 45 | 2.6 | 6.1 | 0.00 | 0.00 | 0.00 | 61 | 1014.6 |
| 20260505101619 | 59 | 45 | 3.5 | 11.3 | 0.00 | 0.00 | 0.00 | 63 | 1015.1 |
| 20260505100639 | 59 | 45 | 2.6 | 4.3 | 0.00 | 0.00 | 0.00 | 62 | 1015.1 |
| 20260505095640 | 60 | 23 | 2.6 | 5.2 | 0.00 | 0.00 | 0.00 | 62 | 1015.2 |
| 20260505094640 | 60 | 23 | 3.5 | 8.7 | 0.00 | 0.00 | 0.00 | 63 | 1015.0 |
| 20260505093619 | 59 | 45 | 2.6 | 3.5 | 0.00 | 0.00 | 0.00 | 65 | 1015.1 |
| 20260505092620 | 59 | 0 | 2.6 | 5.2 | 0.00 | 0.00 | 0.00 | 67 | 1015.2 |
| 20260505091639 | 58 | 45 | 2.6 | 5.2 | 0.00 | 0.00 | 0.00 | 67 | 1015.1 |
| 20260505090619 | 58 | 45 | 1.7 | 3.5 | 0.00 | 0.00 | 0.00 | 67 | 1015.0 |
| 20260505085639 | 58 | 45 | 3.5 | 10.4 | 0.00 | 0.00 | 0.00 | 65 | 1015.0 |
| 20260505084619 | 58 | 225 | 0.9 | 2.6 | 0.00 | 0.00 | 0.00 | 67 | 1015.1 |
| 20260505083619 | 58 | 23 | 2.6 | 5.2 | 0.00 | 0.00 | 0.00 | 67 | 1015.2 |
| 20260505082619 | 57 | 0 | 0.9 | 2.6 | 0.00 | 0.00 | 0.00 | 69 | 1015.2 |
| 20260505081619 | 56 | 45 | 0.9 | 2.6 | 0.00 | 0.00 | 0.00 | 72 | 1015.3 |
| 20260505080619 | 54 | 45 | 1.7 | 3.5 | 0.00 | 0.00 | 0.00 | 74 | 1015.4 |
| 20260505075619 | 53 | 45 | 2.6 | 5.2 | 0.00 | 0.00 | 0.00 | 75 | 1015.5 |
| 20260505074639 | 52 | 45 | 0.9 | 2.6 | 0.00 | 0.00 | 0.00 | 77 | 1015.4 |
| 20260505073619 | 51 | 0.0 | 7.8 | 0.00 | 0.00 | 0.00 | 76 | 1015.4 | |
| 20260505072619 | 51 | 23 | 2.6 | 3.5 | 0.00 | 0.00 | 0.00 | 78 | 1015.4 |
| 20260505071619 | 50 | 23 | 0.9 | 1.7 | 0.00 | 0.00 | 0.00 | 81 | 1015.5 |
| 20260505070619 | 50 | 0 | 1.7 | 2.6 | 0.00 | 0.00 | 0.00 | 83 | 1015.4 |
| 20260505065619 | 49 | 0.0 | 0.9 | 0.00 | 0.00 | 0.00 | 85 | 1015.4 | |
| 20260505064619 | 49 | 0.0 | 0.9 | 0.00 | 0.00 | 0.00 | 86 | 1015.5 | |
| 20260505063619 | 49 | 0.0 | 0.0 | 0.00 | 0.00 | 0.00 | 87 | 1015.6 | |
| 20260505062659 | 49 | 0.0 | 0.0 | 0.00 | 0.00 | 0.00 | 87 | 1015.5 | |
| 20260505061628 | 48 | 0.0 | 0.0 | 0.00 | 0.00 | 0.00 | 87 | 1015.7 | |
| 20260505060619 | 48 | 0.0 | 0.0 | 0.00 | 0.00 | 0.00 | 87 | 1015.5 | |
| 20260505055619 | 48 | 0.0 | 0.9 | 0.00 | 0.00 | 0.00 | 87 | 1015.6 | |
| 20260505054619 | 48 | 0.0 | 0.0 | 0.00 | 0.00 | 0.00 | 88 | 1015.5 | |
| 20260505053619 | 48 | 0.0 | 0.0 | 0.00 | 0.00 | 0.00 | 88 | 1015.5 | |
| 20260505052619 | 48 | 0.0 | 0.0 | 0.00 | 0.00 | 0.00 | 89 | 1015.6 | |
| 20260505051619 | 48 | 0.0 | 0.0 | 0.00 | 0.00 | 0.00 | 89 | 1015.5 | |
| 20260505050619 | 48 | 0.0 | 0.0 | 0.00 | 0.00 | 0.00 | 88 | 1015.6 | |
| 20260505041619 | 48 | 338 | 0.9 | 0.9 | 0.00 | 0.00 | 0.00 | 89 | 1015.2 |
| 20260505040619 | 48 | 0.0 | 0.9 | 0.00 | 0.00 | 0.00 | 89 | 1015.2 | |
| 20260505035619 | 48 | 0.0 | 0.9 | 0.00 | 0.00 | 0.00 | 90 | 1015.3 | |
| 20260505034619 | 48 | 0.0 | 0.0 | 0.00 | 0.00 | 0.00 | 90 | 1015.1 | |
| 20260505033639 | 48 | 0 | 0.9 | 1.7 | 0.00 | 0.00 | 0.00 | 90 | 1015.0 |
| 20260505032619 | 48 | 0.0 | 0.0 | 0.00 | 0.00 | 0.00 | 91 | 1015.2 | |
| 20260505031619 | 48 | 0.0 | 0.0 | 0.00 | 0.00 | 0.00 | 92 | 1015.4 | |
| 20260505030639 | 48 | 0.0 | 0.0 | 0.00 | 0.00 | 0.00 | 92 | 1015.5 | |
| 20260505025618 | 48 | 338 | 0.9 | 0.9 | 0.00 | 0.00 | 0.00 | 92 | 1015.4 |
| 20260505024619 | 48 | 0.0 | 0.9 | 0.00 | 0.00 | 0.00 | 92 | 1015.3 | |
| 20260505023619 | 48 | 0.0 | 0.0 | 0.00 | 0.00 | 0.00 | 92 | 1015.4 | |
| 20260505022619 | 49 | 0.0 | 1.7 | 0.00 | 0.00 | 0.00 | 92 | 1015.4 | |
| 20260505021618 | 49 | 0.0 | 0.9 | 0.00 | 0.00 | 0.00 | 92 | 1015.4 | |
| 20260505020618 | 49 | 338 | 0.9 | 1.7 | 0.00 | 0.00 | 0.00 | 92 | 1015.6 |
| 20260505015618 | 49 | 338 | 0.9 | 1.7 | 0.00 | 0.00 | 0.00 | 92 | 1015.6 |
| 20260505014619 | 49 | 338 | 0.9 | 2.6 | 0.00 | 0.00 | 0.00 | 91 | 1015.5 |
| 20260505013619 | 49 | 0.0 | 0.0 | 0.00 | 0.00 | 0.00 | 91 | 1015.7 | |
| 20260505012618 | 49 | 0.0 | 0.0 | 0.00 | 0.00 | 0.00 | 91 | 1015.7 | |
| 20260505011618 | 49 | 23 | 0.9 | 1.7 | 0.00 | 0.00 | 0.00 | 91 | 1015.7 |
| 20260505010618 | 49 | 45 | 0.9 | 2.6 | 0.00 | 0.00 | 0.00 | 90 | 1015.8 |
| 20260505005619 | 49 | 0.0 | 0.9 | 0.00 | 0.00 | 0.00 | 90 | 1015.8 | |
| 20260505004618 | 50 | 0.0 | 0.9 | 0.00 | 0.00 | 0.00 | 90 | 1015.8 | |
| 20260505003618 | 50 | 0.0 | 0.9 | 0.00 | 0.00 | 0.00 | 91 | 1015.9 | |
| 20260505002618 | 50 | 23 | 0.9 | 2.6 | 0.00 | 0.00 | 0.00 | 92 | 1016.1 |
| 20260505001638 | 50 | 338 | 0.9 | 1.7 | 0.00 | 0.00 | 0.00 | 92 | 1016.1 |
| 20260505000618 | 50 | 338 | 0.9 | 2.6 | 0.00 | 0.00 | 0.00 | 91 | 1016.2 |
| 20260504235618 | 50 | 338 | 0.9 | 2.6 | 0.00 | 0.00 | 0.00 | 92 | 1016.2 |
| 20260504234618 | 50 | 0.0 | 0.9 | 0.00 | 0.00 | 0.00 | 92 | 1016.2 | |
| 20260504233618 | 50 | 0.0 | 0.0 | 0.00 | 0.00 | 0.00 | 92 | 1016.2 | |
| 20260504232638 | 50 | 0.0 | 0.9 | 0.00 | 0.00 | 0.00 | 90 | 1016.0 | |
| 20260504231618 | 50 | 0.0 | 0.0 | 0.00 | 0.00 | 0.00 | 89 | 1016.0 | |
| 20260504230619 | 50 | 0.0 | 0.0 | 0.00 | 0.00 | 0.00 | 89 | 1016.1 | |
| 20260504225638 | 51 | 0.0 | 0.0 | 0.00 | 0.00 | 0.00 | 88 | 1015.9 | |
| 20260504224618 | 51 | 0.0 | 0.9 | 0.00 | 0.00 | 0.00 | 87 | 1015.9 | |
| 20260504223619 | 52 | 0.0 | 0.0 | 0.00 | 0.00 | 0.00 | 87 | 1016.1 | |
| 20260504222618 | 52 | 0.0 | 0.0 | 0.00 | 0.00 | 0.00 | 86 | 1016.1 | |
| 20260504221638 | 53 | 0.0 | 0.9 | 0.00 | 0.00 | 0.00 | 86 | 1016.1 | |
| 20260504220619 | 53 | 0.0 | 1.7 | 0.00 | 0.00 | 0.00 | 86 | 1016.0 | |
| 20260504215639 | 53 | 45 | 2.6 | 6.1 | 0.00 | 0.00 | 0.00 | 86 | 1016.2 |
| 20260504214618 | 54 | 45 | 0.9 | 2.6 | 0.00 | 0.00 | 0.00 | 86 | 1016.2 |
| 20260504213618 | 54 | 0.0 | 1.7 | 0.00 | 0.00 | 0.00 | 86 | 1016.3 | |
| 20260504212618 | 54 | 0.0 | 0.0 | 0.00 | 0.00 | 0.00 | 86 | 1016.4 | |
| 20260504211638 | 54 | 45 | 1.7 | 3.5 | 0.00 | 0.01 | 0.00 | 86 | 1016.2 |
| 20260504210638 | 54 | 0.0 | 0.0 | 0.00 | 0.01 | 0.00 | 86 | 1016.2 | |
| 20260504205618 | 54 | 0.0 | 0.0 | 0.00 | 0.01 | 0.00 | 85 | 1016.3 | |
| 20260504204618 | 55 | 0.0 | 0.9 | 0.00 | 0.01 | 0.00 | 85 | 1016.1 | |
| 20260504203659 | 55 | 90 | 0.9 | 1.7 | 0.00 | 0.01 | 0.00 | 85 | 1016.1 |
| 20260504202618 | 55 | 0.0 | 0.9 | 0.00 | 0.01 | 0.00 | 84 | 1016.1 | |
| 20260504201618 | 55 | 45 | 2.6 | 4.3 | 0.00 | 0.01 | 0.00 | 84 | 1016.0 |
| 20260504200618 | 56 | 45 | 0.9 | 1.7 | 0.00 | 0.01 | 0.00 | 84 | 1015.8 |
| 20260504195638 | 56 | 45 | 2.6 | 4.3 | 0.00 | 0.02 | 0.00 | 84 | 1015.7 |
| 20260504194638 | 56 | 45 | 0.9 | 2.6 | 0.00 | 0.06 | 0.00 | 83 | 1015.6 |
| 20260504193638 | 56 | 0.0 | 0.0 | 0.00 | 0.08 | 0.00 | 82 | 1015.6 | |
| 20260504192627 | 57 | 45 | 0.9 | 1.7 | 0.00 | 0.11 | 0.00 | 81 | 1015.5 |
| 20260504191620 | 57 | 0.0 | 1.7 | 0.00 | 0.11 | 0.00 | 81 | 1015.3 | |
| 20260504190620 | 57 | 0.0 | 0.0 | 0.00 | 0.11 | 0.00 | 81 | 1015.3 | |
| 20260504185620 | 58 | 45 | 0.9 | 1.7 | 0.00 | 0.11 | 0.00 | 80 | 1015.3 |